Location: Ku?niki
(51.4449°N, 17.8974°E)
Time: 07:40:35
(UTC+00:00)

Cosmos 1743 - Pass Details

Date: 18 September 2020
Orbit: 510 x 527 km, 82.6° (Epoch: 22 October)

Event Time Altitude Azimuth Distance (km) Brightness Sun altitude
Rises 17:42:34 0° 206° (SSW) 2,636 6.5 -8.1°
Reaches altitude 10° 17:44:46 10° 213° (SSW) 1,751 5.7 -8.5°
Maximum altitude 17:48:26 42° 286° (WNW) 752 4.2 -9.0°
Drops below altitude 10° 17:52:07 10° 358° (N) 1,755 5.6 -9.6°
Sets 17:54:20 0° 6° (N) 2,645 6.4 -9.9°
